Vorticity
16 7 9 10 3 1 9 16 11 5 11 15 11 8 7 7 9 10 10 10 10 10 10 10 11 9 8 8 7 7 8 7 6 5 4 5 6 7 9 9 8 6 5 5 5 5 4 2 3 4 3 3 3 3 2 2 3 5 7 10 13 13 9
21 2 7 17 10 4 8 13 12 6 6 9 9 7 7 8 9 11 11 11 12 12 12 11 10 10 8 7 7 6 7 6 5 5 4 5 6 8 9 8 8 6 5 6 5 4 4 3 3 3 4 3 2 3 3 2 2 3 4 5 8 13 13
22 6 5 12 16 14 10 10 11 11 10 8 7 6 8 9 9 11 11 11 12 11 12 10 8 9 8 6 6 7 7 6 6 6 4 5 7 8 9 8 6 6 5 6 6 5 5 5 5 4 4 5 3 3 3 3 2 2 3 3 3 7 12
19 22 13 6 14 13 7 10 12 13 10 7 7 6 7 9 8 10 11 10 11 10 10 10 8 7 6 6 6 6 7 6 7 8 5 5 6 5 6 7 6 6 6 6 6 7 8 7 8 8 6 6 5 3 3 3 3 3 2 3 2 2 5
10 12 3 -1 9 9 6 10 14 15 7 1 6 7 7 8 7 9 12 10 9 8 8 7 6 6 5 5 6 5 6 7 9 10 7 5 5 5 6 6 6 6 6 7 6 6 7 6 7 9 8 8 7 5 4 3 3 4 3 2 3 2 1
5 7 1 -4 -0 6 10 10 11 18 14 4 4 7 8 8 7 9 11 12 11 9 9 7 6 7 6 5 6 6 6 8 9 9 8 7 8 8 8 6 6 6 5 5 6 6 6 6 6 6 6 7 8 8 7 5 4 4 3 2 2 3 3
11 13 9 -0 -2 5 10 12 13 13 13 8 3 5 9 7 6 8 9 10 12 11 10 9 8 8 8 7 8 8 8 8 7 7 7 7 7 6 6 5 5 6 6 7 9 9 9 10 9 9 8 7 7 8 8 8 7 5 4 4 3 3 4
12 14 15 3 -1 3 7 15 16 8 8 9 6 6 8 8 7 6 8 9 10 10 10 9 9 9 9 9 8 7 7 6 6 6 5 5 6 5 5 7 7 7 8 9 10 10 10 11 12 12 11 10 9 8 8 8 8 7 6 6 5 4 5
7 13 25 16 5 4 5 10 14 12 11 7 6 7 6 11 11 7 9 9 8 9 10 10 10 9 10 10 10 9 7 6 5 5 6 7 8 8 7 7 7 7 8 9 9 10 10 10 11 13 14 14 12 10 9 8 7 7 7 6 5 5 5
8 9 17 16 10 9 9 13 15 13 9 4 8 11 8 9 10 7 8 9 8 8 9 12 11 9 10 9 10 10 7 7 6 6 8 8 7 8 8 7 6 5 7 9 10 9 9 11 13 14 16 16 14 13 11 9 8 7 7 7 7 6 6
9 6 3 2 4 5 3 12 16 7 7 14 18 13 8 8 8 7 8 7 8 8 8 11 9 8 9 7 6 7 5 5 6 8 9 9 9 9 7 7 6 4 6 8 8 8 9 11 13 14 15 14 15 15 14 13 12 11 10 10 10 9 8
-2 -2 2 6 9 3 -5 5 12 6 5 13 16 11 9 11 9 9 9 7 6 7 7 10 9 8 8 6 6 5 3 3 4 5 7 8 10 10 9 9 6 4 6 7 8 8 9 11 12 13 14 13 16 18 16 16 16 16 15 14 14 12 9
1 -3 5 16 22 17 13 17 17 13 9 4 5 9 8 9 8 8 11 9 8 8 7 8 9 9 9 8 7 4 2 2 2 3 5 5 7 8 7 9 7 5 6 6 7 8 7 9 11 12 13 12 13 15 14 15 17 18 18 16 16 16 14
4 -2 -0 3 6 11 20 23 12 8 10 4 2 6 5 5 5 5 8 8 8 9 9 9 9 9 10 9 9 6 2 1 1 3 4 4 4 5 6 8 8 6 5 5 7 7 6 8 10 11 11 10 10 11 12 13 14 14 14 12 14 16 16
-0 3 5 -3 -6 -1 10 14 6 3 6 2 1 3 4 7 7 8 9 8 7 6 6 8 8 7 9 9 11 11 6 4 4 4 5 4 4 4 5 8 7 5 5 5 6 6 6 7 9 11 11 10 10 11 13 14 12 11 10 9 9 11 12
5 6 10 2 -2 1 4 3 3 5 4 -0 1 2 2 5 6 8 10 8 7 6 5 7 7 6 7 6 7 9 8 7 7 7 8 7 6 5 5 6 7 6 5 5 5 6 6 7 10 11 11 10 10 10 11 13 12 10 10 9 8 9 10
3 2 11 11 5 3 3 3 4 6 5 0 1 1 -0 2 2 3 6 5 4 5 5 7 7 5 6 4 3 6 9 11 11 10 11 11 9 7 5 5 7 6 4 5 7 7 6 8 11 11 9 8 8 7 7 7 7 7 7 7 7 8 9
-5 -4 3 11 14 9 3 5 7 6 6 4 2 1 0 1 1 1 2 3 4 4 3 4 4 4 7 8 8 8 10 12 14 15 15 16 15 11 6 5 5 5 4 6 8 8 8 9 11 10 8 6 7 6 5 4 3 3 3 3 4 4 5
6 1 -7 -5 11 17 7 7 14 12 9 9 6 3 1 1 1 1 1 3 4 5 4 3 3 3 6 9 10 10 9 9 11 16 19 19 18 14 8 5 4 5 6 6 7 8 9 9 9 9 8 7 7 6 3 3 3 2 3 3 3 3 2
15 6 -3 -5 10 21 10 5 17 21 17 14 9 4 4 4 5 5 4 3 2 2 4 4 4 5 6 6 5 5 10 12 9 12 17 18 16 14 9 6 5 5 6 6 6 7 9 10 9 7 7 6 6 5 3 3 3 2 3 3 3 2 1
13 4 2 2 8 18 13 5 11 17 16 16 10 4 5 6 5 4 4 3 1 1 3 3 5 6 6 7 2 -0 11 19 13 9 13 14 14 12 9 7 6 5 6 5 6 8 9 9 8 7 6 4 5 5 5 4 2 2 3 4 5 5 2
13 11 12 7 0 6 11 9 9 9 10 13 9 2 5 9 9 7 4 4 4 3 2 2 4 5 6 7 4 3 16 23 14 10 13 13 12 11 10 9 7 5 5 5 7 10 10 9 9 8 6 4 3 4 6 6 4 5 4 1 2 4 5
11 9 9 9 5 5 3 3 9 12 11 11 7 4 9 12 12 11 8 8 9 7 4 3 3 3 4 6 9 14 20 17 11 14 17 14 12 11 10 10 9 6 6 8 11 13 11 10 8 6 5 5 4 4 5 6 4 4 2 -1 -1 3 5
10 8 7 8 10 12 7 5 12 17 17 17 17 16 17 15 12 10 9 9 9 8 8 6 5 4 3 5 16 23 17 7 5 12 18 18 15 13 11 11 10 10 11 13 14 13 10 9 8 8 7 7 6 6 7 8 7 4 2 1 1 4 6
9 7 8 8 8 11 14 11 10 12 15 17 17 16 17 17 17 15 14 14 13 12 11 8 7 7 3 5 18 21 11 4 5 6 10 15 14 11 11 12 11 13 14 14 13 11 9 9 10 11 10 8 8 8 8 9 8 8 8 8 6 4 2
6 3 3 6 5 6 11 11 8 9 10 8 8 11 14 16 17 19 23 24 22 21 19 16 15 13 6 6 16 16 7 5 6 3 4 7 7 9 12 12 11 13 12 12 11 10 10 10 9 9 8 7 7 7 8 9 9 10 12 13 13 12 9
-0 2 3 4 5 5 6 7 7 9 8 6 8 11 10 10 11 14 17 20 22 23 25 24 21 17 11 11 16 13 5 4 6 5 4 4 6 10 13 12 12 12 12 11 10 9 8 6 5 5 5 5 6 7 8 8 8 7 6 6 8 11 11
-1 1 1 2 5 6 5 5 6 8 9 9 8 6 4 6 8 8 9 11 13 16 17 19 20 18 16 14 13 8 4 3 4 5 5 5 5 7 11 12 12 12 12 12 10 8 7 6 5 5 5 5 5 5 4 3 3 3 3 4 6 7 8
5 4 2 4 6 3 4 5 5 6 8 8 6 4 4 5 4 5 6 6 7 8 9 10 13 15 14 13 11 8 6 6 5 3 4 6 4 2 4 7 8 9 10 11 10 10 9 8 8 7 5 4 5 4 4 3 2 3 3 3 5 7 8
10 7 4 4 4 2 4 6 4 4 6 5 5 4 4 3 3 5 6 4 4 6 6 6 8 10 12 12 9 7 8 10 8 5 3 5 5 2 2 4 5 5 5 5 6 6 7 7 5 4 4 3 3 4 4 4 4 4 3 2 3 6 7
9 8 6 6 4 3 4 4 4 5 5 3 4 4 5 6 6 6 7 6 4 4 4 5 6 7 10 11 9 7 7 9 11 8 4 3 5 4 4 4 2 -1 -1 1 2 2 3 3 1 1 1 1 1 3 3 3 5 5 3 1 2 5 5
7 8 7 6 5 4 5 5 4 5 4 3 3 4 5 6 6 7 9 9 7 5 4 5 5 5 7 9 10 10 9 8 9 10 7 4 3 4 5 4 3 0 -0 0 1 0 0 0 1 2 2 2 2 3 2 3 5 4 2 -0 1 4 5
8 10 10 9 6 5 5 5 4 4 3 2 2 3 4 3 3 4 7 8 8 8 7 6 5 6 7 7 9 10 10 9 9 11 11 8 4 3 5 5 4 2 0 -0 1 1 0 -0 1 1 1 1 2 2 2 4 4 2 0 0 3 6 6
6 9 12 12 10 7 6 5 4 3 2 2 2 3 3 4 4 3 4 6 7 6 6 7 6 5 6 8 9 8 8 9 10 10 12 11 8 6 5 5 4 3 2 2 3 2 1 1 1 1 1 2 3 3 4 4 2 2 1 2 4 6 6
5 8 11 12 13 12 10 8 6 4 4 5 5 4 4 5 6 4 3 5 6 6 5 5 5 5 5 6 7 7 7 7 6 7 9 10 11 9 5 3 4 3 3 3 4 2 2 2 2 2 2 3 3 3 2 1 1 3 4 5 5 5 6
4 5 9 12 13 13 12 12 11 9 8 7 7 7 6 6 6 6 5 4 5 6 5 4 5 6 5 4 5 8 10 9 7 7 8 7 8 8 5 4 6 6 4 5 6 4 3 2 2 2 2 2 2 1 2 3 4 5 5 5 5 5 6
8 7 6 9 13 13 12 12 11 11 11 10 9 8 8 7 7 7 6 5 5 6 5 5 6 6 5 6 6 5 7 8 9 10 10 7 6 8 7 7 8 6 5 5 4 3 2 1 1 1 1 3 4 4 5 6 5 5 6 6 6 8 9
8 9 6 6 10 11 11 10 9 9 10 10 11 11 9 9 8 7 7 7 7 6 6 6 7 7 6 6 5 4 4 5 7 8 9 8 7 7 7 8 8 6 5 5 5 5 5 4 4 5 6 7 6 6 6 5 5 5 5 6 7 9 10
Height
5865 5865 5871 5875 5876 5878 5881 5882 5883 5883 5885 5888 5889 5888 5888 5890 5894 5898 5901 5903 5905 5906 5908 5910 5911 5912 5914 5915 5916 5918 5920 5922 5923 5925 5926 5928 5929 5931 5932 5934 5935 5936 5937 5938 5939 5940 5941 5941 5942 5942 5943 5943 5943 5943 5943 5943 5943 5943 5943 5943 5943 5944 5944
5864 5863 5866 5873 5876 5878 5880 5881 5882 5883 5885 5886 5886 5886 5887 5890 5894 5897 5900 5902 5904 5905 5907 5908 5910 5912 5913 5914 5916 5918 5920 5921 5923 5924 5926 5927 5929 5930 5931 5933 5934 5936 5937 5938 5939 5939 5940 5941 5941 5942 5942 5942 5942 5942 5942 5943 5943 5943 5943 5943 5943 5943 5943
5863 5863 5864 5871 5876 5878 5880 5881 5882 5884 5884 5884 5884 5884 5886 5890 5893 5896 5899 5901 5903 5904 5906 5908 5909 5911 5913 5914 5916 5918 5919 5921 5923 5924 5925 5926 5928 5929 5931 5932 5934 5935 5936 5937 5938 5939 5939 5940 5940 5941 5941 5941 5941 5942 5942 5942 5942 5942 5943 5943 5943 5943 5943
5862 5863 5863 5868 5874 5876 5878 5880 5882 5883 5884 5883 5882 5883 5886 5889 5892 5895 5897 5900 5902 5904 5905 5907 5909 5910 5912 5914 5916 5918 5919 5921 5922 5924 5925 5926 5928 5929 5930 5932 5933 5934 5935 5936 5937 5938 5938 5939 5939 5940 5940 5940 5940 5940 5941 5941 5941 5941 5942 5942 5942 5942 5942
5861 5863 5862 5866 5870 5872 5874 5877 5879 5880 5881 5880 5879 5882 5885 5888 5891 5894 5896 5899 5901 5903 5905 5907 5909 5911 5913 5914 5916 5918 5919 5921 5922 5924 5925 5926 5927 5928 5930 5931 5932 5933 5934 5935 5936 5936 5937 5938 5938 5938 5939 5939 5939 5939 5939 5940 5940 5940 5940 5941 5941 5941 5941
5859 5861 5861 5864 5868 5870 5871 5874 5876 5877 5877 5876 5877 5881 5884 5887 5890 5892 5895 5898 5900 5902 5904 5907 5909 5911 5913 5914 5915 5917 5918 5920 5922 5923 5925 5926 5927 5928 5929 5930 5931 5932 5933 5933 5934 5935 5935 5936 5936 5936 5937 5937 5938 5938 5938 5938 5939 5939 5939 5939 5940 5940 5940
5856 5859 5860 5861 5866 5869 5870 5872 5875 5876 5875 5874 5876 5880 5883 5887 5889 5891 5894 5897 5899 5901 5904 5906 5908 5910 5912 5913 5914 5916 5917 5919 5921 5922 5924 5925 5926 5927 5928 5929 5930 5931 5931 5932 5932 5933 5933 5934 5934 5934 5934 5935 5935 5936 5936 5937 5937 5937 5937 5938 5938 5938 5939
5854 5857 5858 5860 5864 5867 5869 5871 5872 5874 5875 5875 5876 5879 5883 5886 5888 5890 5893 5895 5897 5900 5903 5905 5907 5908 5910 5911 5913 5914 5916 5917 5919 5921 5922 5924 5925 5926 5927 5928 5929 5929 5930 5930 5931 5931 5931 5932 5932 5932 5932 5933 5933 5934 5934 5935 5935 5936 5936 5936 5936 5936 5937
5851 5854 5856 5859 5862 5866 5868 5870 5871 5873 5875 5877 5878 5880 5882 5884 5887 5889 5891 5893 5896 5898 5901 5902 5904 5906 5908 5910 5911 5913 5914 5916 5918 5919 5921 5922 5923 5924 5925 5926 5927 5928 5929 5929 5929 5929 5930 5930 5930 5930 5930 5931 5931 5932 5932 5933 5933 5934 5934 5934 5934 5934 5935
5849 5850 5854 5858 5860 5863 5867 5869 5870 5873 5876 5878 5879 5879 5881 5883 5886 5888 5890 5892 5895 5897 5899 5900 5902 5904 5906 5908 5909 5911 5913 5915 5916 5918 5919 5920 5921 5922 5923 5925 5926 5926 5927 5928 5928 5928 5928 5928 5928 5928 5928 5929 5929 5930 5930 5931 5931 5931 5932 5932 5932 5932 5932
5847 5848 5852 5856 5859 5861 5864 5866 5869 5873 5876 5878 5879 5878 5879 5882 5885 5887 5889 5891 5893 5895 5897 5898 5900 5902 5904 5906 5908 5909 5911 5913 5914 5916 5917 5918 5919 5920 5921 5922 5923 5924 5925 5926 5926 5926 5926 5926 5926 5926 5926 5927 5927 5928 5928 5929 5929 5929 5929 5930 5930 5930 5930
5846 5847 5850 5854 5857 5859 5861 5864 5868 5871 5873 5876 5878 5877 5877 5880 5883 5886 5888 5890 5892 5893 5895 5897 5899 5901 5903 5904 5906 5908 5910 5911 5913 5914 5915 5916 5917 5918 5919 5920 5921 5922 5923 5924 5924 5925 5925 5925 5924 5924 5925 5925 5925 5926 5926 5926 5927 5927 5927 5928 5928 5928 5928
5844 5847 5848 5851 5855 5857 5861 5864 5867 5869 5872 5873 5875 5875 5876 5878 5881 5884 5887 5889 5891 5892 5894 5895 5897 5899 5901 5903 5905 5907 5908 5910 5911 5912 5913 5914 5915 5916 5917 5918 5919 5920 5921 5921 5922 5923 5923 5923 5923 5923 5923 5923 5923 5924 5924 5925 5925 5926 5926 5925 5926 5926 5926
5844 5845 5846 5849 5852 5857 5861 5865 5866 5868 5870 5870 5872 5874 5875 5877 5880 5883 5885 5888 5889 5891 5893 5894 5896 5898 5900 5901 5903 5905 5907 5908 5909 5910 5911 5912 5913 5914 5915 5916 5917 5918 5919 5919 5920 5921 5921 5921 5921 5921 5921 5921 5922 5922 5923 5923 5924 5924 5924 5924 5924 5924 5924
5842 5843 5844 5846 5850 5855 5860 5863 5864 5865 5866 5867 5869 5871 5873 5876 5878 5881 5884 5886 5888 5890 5891 5893 5895 5896 5898 5900 5901 5903 5905 5906 5907 5908 5909 5910 5911 5912 5913 5914 5915 5916 5916 5917 5918 5918 5918 5919 5919 5919 5920 5920 5920 5921 5922 5922 5923 5923 5923 5923 5923 5923 5923
5840 5842 5843 5845 5847 5850 5854 5857 5860 5861 5863 5864 5866 5869 5871 5874 5876 5879 5882 5884 5886 5888 5890 5892 5894 5895 5897 5898 5900 5900 5901 5902 5904 5905 5906 5907 5909 5909 5910 5911 5912 5913 5914 5915 5916 5916 5916 5917 5917 5918 5918 5919 5919 5920 5921 5921 5922 5922 5922 5922 5922 5922 5922
5839 5840 5842 5843 5844 5846 5849 5852 5855 5858 5860 5862 5865 5867 5869 5872 5874 5877 5879 5882 5885 5887 5888 5890 5892 5894 5895 5897 5898 5898 5899 5900 5901 5902 5903 5905 5906 5907 5908 5909 5910 5911 5912 5913 5914 5914 5915 5915 5916 5917 5917 5918 5919 5919 5920 5921 5921 5921 5921 5921 5921 5920 5921
5835 5836 5838 5840 5841 5843 5846 5849 5853 5855 5857 5860 5863 5865 5867 5869 5872 5874 5877 5880 5882 5884 5886 5888 5890 5892 5893 5894 5896 5897 5897 5898 5898 5899 5900 5902 5903 5904 5905 5906 5907 5909 5910 5911 5912 5912 5913 5913 5915 5915 5916 5917 5918 5918 5919 5920 5920 5920 5920 5920 5920 5919 5919
5834 5834 5836 5837 5839 5843 5846 5848 5850 5852 5855 5858 5861 5863 5865 5867 5869 5872 5874 5877 5879 5882 5884 5886 5888 5890 5891 5892 5893 5894 5895 5896 5896 5896 5897 5898 5900 5901 5902 5903 5905 5907 5908 5909 5910 5910 5911 5912 5913 5914 5915 5916 5916 5917 5918 5918 5919 5919 5919 5919 5919 5918 5918
5832 5833 5833 5835 5838 5842 5844 5845 5847 5850 5852 5855 5858 5861 5863 5865 5867 5869 5871 5874 5876 5879 5882 5884 5886 5887 5889 5890 5891 5892 5893 5893 5894 5894 5894 5895 5896 5897 5899 5901 5903 5904 5905 5906 5906 5908 5909 5910 5911 5912 5913 5914 5915 5915 5916 5917 5917 5918 5918 5918 5918 5917 5916
5830 5831 5832 5833 5835 5840 5842 5844 5846 5849 5851 5854 5856 5859 5861 5863 5865 5867 5869 5871 5874 5877 5879 5881 5883 5884 5886 5887 5888 5889 5890 5891 5891 5892 5892 5893 5894 5895 5897 5899 5900 5901 5901 5903 5904 5905 5907 5908 5909 5910 5911 5911 5912 5913 5914 5915 5915 5916 5916 5916 5916 5916 5915
5827 5828 5829 5830 5833 5837 5841 5843 5845 5848 5850 5852 5854 5856 5859 5861 5863 5865 5867 5869 5871 5874 5876 5878 5880 5882 5883 5885 5886 5887 5887 5888 5889 5889 5890 5891 5892 5893 5895 5896 5897 5898 5898 5900 5901 5903 5904 5905 5906 5908 5908 5909 5910 5910 5912 5913 5913 5914 5914 5914 5914 5914 5913
5823 5825 5827 5829 5832 5836 5838 5841 5843 5846 5848 5849 5851 5853 5856 5858 5860 5862 5864 5866 5869 5871 5873 5875 5877 5879 5880 5882 5883 5884 5885 5886 5887 5887 5887 5888 5890 5891 5893 5894 5895 5895 5896 5897 5898 5900 5901 5902 5903 5904 5905 5906 5907 5908 5909 5910 5910 5911 5912 5912 5912 5911 5911
5821 5823 5826 5828 5831 5834 5836 5838 5841 5843 5845 5847 5848 5851 5853 5855 5857 5859 5861 5864 5866 5868 5870 5872 5874 5876 5877 5878 5880 5881 5882 5883 5884 5884 5885 5886 5887 5888 5890 5890 5892 5893 5893 5894 5895 5897 5898 5899 5900 5901 5902 5904 5905 5905 5907 5908 5908 5909 5909 5909 5909 5909 5909
5818 5821 5823 5826 5829 5832 5834 5836 5838 5840 5842 5844 5846 5849 5850 5852 5854 5856 5858 5860 5862 5864 5867 5869 5871 5872 5874 5875 5877 5878 5879 5881 5882 5882 5883 5883 5884 5885 5886 5887 5888 5889 5890 5891 5892 5893 5895 5896 5897 5899 5900 5901 5902 5903 5904 5905 5906 5906 5906 5907 5906 5905 5905
5816 5819 5820 5823 5826 5829 5831 5833 5835 5837 5839 5842 5844 5846 5847 5849 5851 5853 5855 5857 5858 5860 5863 5865 5867 5868 5870 5872 5874 5875 5877 5878 5879 5880 5880 5881 5882 5882 5883 5884 5885 5886 5887 5888 5889 5890 5892 5893 5894 5896 5897 5899 5900 5901 5902 5902 5903 5903 5903 5903 5902 5901 5901
5814 5817 5818 5820 5823 5825 5827 5829 5832 5835 5837 5839 5841 5843 5844 5846 5848 5850 5852 5853 5855 5857 5858 5860 5862 5864 5866 5868 5870 5872 5874 5875 5876 5877 5878 5878 5879 5879 5880 5881 5882 5883 5884 5885 5886 5888 5889 5890 5891 5893 5894 5896 5897 5897 5898 5899 5899 5900 5900 5899 5899 5898 5896
5811 5813 5815 5817 5819 5822 5824 5826 5829 5831 5834 5836 5838 5839 5841 5844 5845 5847 5849 5851 5852 5854 5855 5857 5859 5861 5863 5865 5867 5869 5870 5872 5873 5874 5875 5876 5876 5877 5877 5878 5879 5880 5881 5883 5884 5885 5886 5887 5888 5889 5891 5892 5893 5894 5895 5895 5895 5896 5896 5896 5895 5894 5892
5808 5809 5811 5813 5816 5819 5821 5823 5825 5828 5830 5833 5835 5837 5839 5841 5842 5844 5846 5847 5849 5851 5852 5854 5856 5858 5860 5861 5863 5865 5866 5868 5870 5871 5872 5873 5873 5874 5875 5875 5876 5877 5879 5880 5881 5882 5883 5884 5885 5886 5887 5888 5889 5890 5890 5890 5891 5891 5891 5891 5890 5889 5888
5804 5806 5807 5809 5812 5815 5817 5819 5822 5824 5827 5830 5832 5833 5835 5837 5839 5841 5843 5844 5847 5848 5849 5851 5853 5855 5856 5858 5860 5861 5862 5864 5866 5867 5868 5869 5870 5871 5872 5872 5873 5875 5875 5876 5877 5878 5879 5880 5881 5882 5883 5883 5884 5885 5885 5885 5885 5886 5886 5886 5885 5884 5883
5800 5801 5803 5805 5808 5811 5813 5815 5818 5820 5823 5826 5828 5830 5832 5834 5836 5838 5840 5842 5844 5845 5847 5848 5849 5851 5853 5854 5856 5857 5858 5860 5862 5863 5864 5865 5866 5867 5868 5869 5870 5871 5872 5873 5874 5875 5876 5876 5877 5878 5878 5879 5879 5879 5879 5879 5880 5880 5880 5879 5879 5878 5878
5795 5798 5800 5802 5805 5807 5809 5811 5813 5816 5819 5822 5824 5826 5828 5830 5833 5835 5837 5839 5840 5841 5843 5844 5845 5847 5849 5850 5852 5853 5854 5855 5857 5859 5860 5861 5862 5864 5865 5866 5866 5867 5868 5869 5870 5871 5871 5872 5872 5873 5874 5874 5874 5875 5874 5874 5874 5874 5873 5872 5872 5872 5872
5791 5794 5796 5798 5801 5803 5805 5806 5809 5812 5815 5818 5820 5822 5823 5826 5829 5831 5833 5835 5836 5837 5839 5840 5841 5843 5845 5846 5847 5849 5850 5851 5852 5854 5855 5857 5858 5859 5860 5861 5862 5863 5864 5865 5865 5866 5867 5867 5868 5868 5868 5869 5869 5869 5869 5869 5868 5867 5865 5864 5865 5867 5867
5786 5789 5792 5794 5797 5799 5801 5802 5805 5808 5811 5814 5816 5817 5819 5822 5824 5827 5829 5830 5832 5833 5835 5836 5837 5839 5841 5842 5843 5844 5846 5847 5848 5849 5851 5852 5853 5855 5856 5857 5858 5858 5859 5860 5861 5861 5862 5863 5863 5863 5863 5863 5863 5863 5863 5863 5863 5861 5860 5859 5860 5860 5861
5781 5784 5787 5790 5792 5795 5797 5798 5801 5804 5807 5809 5811 5813 5815 5817 5820 5822 5824 5826 5827 5829 5830 5831 5833 5834 5836 5837 5838 5839 5841 5842 5844 5845 5846 5847 5849 5850 5850 5852 5853 5853 5854 5855 5856 5857 5857 5858 5858 5858 5858 5857 5857 5857 5857 5857 5857 5856 5855 5855 5854 5853 5853
5776 5779 5782 5785 5787 5790 5793 5794 5797 5800 5802 5804 5807 5809 5811 5813 5815 5817 5819 5821 5823 5824 5826 5827 5828 5829 5831 5833 5834 5835 5837 5839 5840 5841 5841 5842 5844 5845 5845 5847 5848 5849 5849 5850 5851 5852 5852 5852 5852 5852 5852 5851 5851 5851 5851 5851 5851 5850 5849 5848 5847 5846 5845
5771 5774 5777 5780 5782 5785 5788 5790 5792 5795 5797 5800 5802 5804 5806 5808 5810 5812 5814 5816 5818 5819 5821 5822 5823 5825 5827 5829 5830 5831 5833 5834 5835 5836 5837 5838 5839 5840 5841 5843 5844 5844 5844 5845 5846 5847 5847 5847 5846 5846 5846 5846 5845 5846 5846 5845 5845 5844 5843 5842 5840 5839 5838
5767 5769 5772 5775 5777 5780 5783 5785 5787 5790 5793 5795 5797 5799 5801 5803 5805 5807 5809 5811 5813 5815 5816 5817 5819 5821 5822 5823 5824 5826 5828 5828 5829 5831 5833 5834 5834 5834 5836 5837 5838 5838 5838 5839 5840 5841 5841 5841 5841 5841 5840 5840 5839 5839 5839 5839 5838 5837 5836 5835 5834 5832 5831